| time (UTC) | temp F | wind direction | speed MPH | gust MPH | rain 1hr in | rain 24hr in | rain mn in | humidity % | barometer mb |
| 20260901011942 | 69 | 82 | 0.0 | 2.0 | 0.00 | 0.19 | 0.19 | 97 | 1020.1 |
| 20260901011504 | 69 | 77 | 0.0 | 1.0 | 0.00 | 0.19 | 0.19 | 98 | 1017.7 |
| 20260901011042 | 69 | 81 | 0.0 | 1.0 | 0.00 | 0.19 | 0.19 | 98 | 1020.1 |
| 20260901010142 | 69 | 0 | 0.0 | 0.0 | 0.00 | 0.19 | 0.19 | 98 | 1020.3 |
| 20260901005242 | 69 | 0 | 0.0 | 0.0 | 0.00 | 0.19 | 0.19 | 98 | 1020.4 |
| 20260901004502 | 69 | 167 | 0.0 | 0.0 | 0.00 | 0.19 | 0.19 | 98 | 1017.7 |
| 20260901004342 | 69 | 0 | 0.0 | 0.0 | 0.00 | 0.19 | 0.19 | 98 | 1020.1 |
| 20260901003442 | 69 | 0 | 0.0 | 0.0 | 0.00 | 0.19 | 0.19 | 97 | 1020.0 |
| 20260901003103 | 69 | 167 | 0.0 | 0.0 | 0.00 | 0.19 | 0.19 | 97 | 1017.5 |
| 20260901002542 | 69 | 0 | 0.0 | 0.0 | 0.00 | 0.19 | 0.19 | 97 | 1019.8 |
| 20260901001642 | 69 | 0 | 0.0 | 0.0 | 0.00 | 0.19 | 0.19 | 97 | 1019.5 |
| 20260901001505 | 69 | 167 | 0.0 | 0.0 | 0.00 | 0.19 | 0.19 | 97 | 1017.1 |
| 20260901000742 | 69 | 0 | 0.0 | 0.0 | 0.00 | 0.19 | 0.19 | 97 | 1019.5 |
| 20260831235842 | 69 | 0 | 0.0 | 0.0 | 0.00 | 0.19 | 0.19 | 96 | 1019.5 |
| 20260831234942 | 70 | 0 | 0.0 | 0.0 | 0.00 | 0.19 | 0.19 | 96 | 1019.4 |
| 20260831234503 | 69 | 167 | 0.0 | 0.0 | 0.00 | 0.19 | 0.19 | 95 | 1017.1 |
| 20260831234042 | 70 | 0 | 0.0 | 0.0 | 0.00 | 0.19 | 0.19 | 95 | 1019.3 |
| 20260831233142 | 70 | 0 | 0.0 | 0.0 | 0.00 | 0.19 | 0.19 | 95 | 1019.3 |
| 20260831233106 | 70 | 166 | 0.0 | 0.0 | 0.00 | 0.19 | 0.19 | 95 | 1016.9 |
| 20260831232242 | 71 | 0 | 0.0 | 0.0 | 0.00 | 0.19 | 0.19 | 94 | 1019.3 |
| 20260831231503 | 71 | 168 | 0.0 | 0.0 | 0.00 | 0.19 | 0.19 | 94 | 1016.9 |
| 20260831231342 | 71 | 0 | 0.0 | 0.0 | 0.00 | 0.19 | 0.19 | 94 | 1019.5 |
| 20260831230442 | 71 | 0 | 0.0 | 0.0 | 0.00 | 0.19 | 0.19 | 93 | 1019.5 |
| 20260831230114 | 71 | 167 | 0.0 | 0.0 | 0.00 | 0.19 | 0.19 | 93 | 1017.1 |
| 20260831225542 | 72 | 0 | 0.0 | 0.0 | 0.00 | 0.19 | 0.19 | 93 | 1019.4 |
| 20260831224503 | 71 | 166 | 0.0 | 0.0 | 0.00 | 0.19 | 0.19 | 93 | 1017.2 |
| 20260831223742 | 72 | 0 | 0.0 | 0.0 | 0.00 | 0.19 | 0.19 | 92 | 1019.6 |
| 20260831223106 | 71 | 166 | 0.0 | 0.0 | 0.00 | 0.19 | 0.19 | 92 | 1017.2 |
| 20260831222842 | 72 | 0 | 0.0 | 0.0 | 0.00 | 0.19 | 0.19 | 92 | 1019.6 |
| 20260831221504 | 72 | 166 | 0.0 | 0.0 | 0.00 | 0.19 | 0.19 | 91 | 1017.3 |
| 20260831221042 | 72 | 0 | 0.0 | 0.0 | 0.00 | 0.19 | 0.19 | 91 | 1019.6 |
| 20260831220141 | 72 | 140 | 0.0 | 1.0 | 0.00 | 0.19 | 0.19 | 91 | 1019.7 |
| 20260831220115 | 72 | 167 | 0.0 | 1.0 | 0.00 | 0.19 | 0.19 | 91 | 1017.4 |
| 20260831215242 | 73 | 87 | 0.0 | 1.0 | 0.00 | 0.19 | 0.19 | 91 | 1019.8 |
| 20260831214502 | 72 | 85 | 0.0 | 1.0 | 0.00 | 0.19 | 0.19 | 90 | 1017.5 |
| 20260831213102 | 72 | 99 | 0.0 | 1.0 | 0.00 | 0.19 | 0.19 | 91 | 1017.4 |
| 20260831212542 | 73 | 102 | 0.0 | 1.0 | 0.00 | 0.19 | 0.19 | 90 | 1019.8 |
| 20260831211642 | 72 | 125 | 0.0 | 1.0 | 0.00 | 0.19 | 0.19 | 92 | 1019.9 |
| 20260831211503 | 72 | 124 | 0.0 | 1.0 | 0.00 | 0.19 | 0.19 | 92 | 1017.5 |
| 20260831210741 | 72 | 106 | 0.0 | 5.0 | 0.00 | 0.19 | 0.19 | 92 | 1020.0 |
| 20260831210103 | 71 | 116 | 0.0 | 4.0 | 0.00 | 0.19 | 0.19 | 92 | 1017.7 |
| 20260831205841 | 71 | 94 | 0.0 | 5.0 | 0.00 | 0.19 | 0.19 | 92 | 1020.1 |
| 20260831204942 | 71 | 205 | 0.0 | 1.0 | 0.00 | 0.19 | 0.19 | 92 | 1020.1 |
| 20260831204503 | 70 | 204 | 0.0 | 1.0 | 0.00 | 0.19 | 0.19 | 93 | 1017.8 |
| 20260831203142 | 71 | 103 | 0.0 | 1.0 | 0.00 | 0.19 | 0.19 | 92 | 1020.2 |
| 20260831203108 | 70 | 91 | 0.0 | 1.0 | 0.00 | 0.19 | 0.19 | 92 | 1017.9 |
| 20260831202242 | 71 | 0 | 0.0 | 0.0 | 0.00 | 0.19 | 0.19 | 92 | 1020.3 |
| 20260831201503 | 70 | 184 | 0.0 | 0.0 | 0.00 | 0.19 | 0.19 | 92 | 1018.1 |
| 20260831201341 | 70 | 0 | 0.0 | 0.0 | 0.00 | 0.19 | 0.19 | 92 | 1020.4 |
| 20260831200442 | 70 | 0 | 0.0 | 0.0 | 0.00 | 0.19 | 0.19 | 91 | 1020.4 |
| 20260831200110 | 70 | 184 | 0.0 | 0.0 | 0.00 | 0.19 | 0.19 | 91 | 1018.2 |
| 20260831194502 | 70 | 182 | 0.0 | 2.0 | 0.00 | 0.19 | 0.19 | 90 | 1018.2 |
| 20260831193741 | 71 | 196 | 0.0 | 2.0 | 0.00 | 0.19 | 0.19 | 90 | 1020.3 |
| 20260831193104 | 71 | 186 | 0.0 | 1.0 | 0.00 | 0.19 | 0.19 | 90 | 1018.1 |
| 20260831192842 | 71 | 202 | 0.0 | 2.0 | 0.00 | 0.19 | 0.19 | 90 | 1020.4 |
| 20260831191941 | 71 | 129 | 0.0 | 2.0 | 0.00 | 0.19 | 0.19 | 89 | 1020.5 |
| 20260831191502 | 71 | 228 | 0.0 | 3.0 | 0.00 | 0.19 | 0.19 | 88 | 1018.3 |
| 20260831191041 | 72 | 131 | 0.0 | 3.0 | 0.00 | 0.19 | 0.19 | 87 | 1020.5 |
| 20260831190141 | 72 | 58 | 0.0 | 3.0 | 0.00 | 0.19 | 0.19 | 89 | 1020.7 |
| 20260831190115 | 71 | 288 | 0.0 | 4.0 | 0.00 | 0.19 | 0.19 | 89 | 1018.4 |
| 20260831184506 | 72 | 192 | 0.0 | 2.0 | 0.00 | 0.19 | 0.19 | 89 | 1018.5 |
| 20260831184342 | 72 | 171 | 0.0 | 2.0 | 0.00 | 0.19 | 0.19 | 89 | 1020.9 |
| 20260831183443 | 71 | 164 | 0.0 | 3.0 | 0.00 | 0.19 | 0.19 | 90 | 1020.6 |
| 20260831183113 | 70 | 172 | 0.0 | 3.0 | 0.00 | 0.19 | 0.19 | 90 | 1018.5 |
| 20260831182541 | 71 | 170 | 1.0 | 3.0 | 0.00 | 0.19 | 0.19 | 90 | 1020.8 |
| 20260831181502 | 69 | 159 | 0.0 | 4.0 | 0.00 | 0.19 | 0.19 | 93 | 1018.6 |
| 20260831180110 | 68 | 174 | 0.0 | 1.0 | 0.00 | 0.19 | 0.19 | 92 | 1018.8 |
| 20260831175841 | 68 | 167 | 0.0 | 2.0 | 0.00 | 0.19 | 0.19 | 93 | 1021.0 |
| 20260831174941 | 68 | 164 | 0.0 | 3.0 | 0.00 | 0.19 | 0.19 | 91 | 1021.1 |
| 20260831174503 | 68 | 188 | 0.0 | 3.0 | 0.00 | 0.19 | 0.19 | 91 | 1019.0 |
| 20260831174041 | 68 | 170 | 0.0 | 2.0 | 0.00 | 0.19 | 0.19 | 92 | 1021.2 |
| 20260831173142 | 68 | 145 | 1.0 | 4.0 | 0.00 | 0.19 | 0.19 | 91 | 1021.3 |
| 20260831173103 | 67 | 156 | 0.0 | 4.0 | 0.00 | 0.19 | 0.19 | 91 | 1019.1 |
| 20260831172242 | 68 | 157 | 0.0 | 2.0 | 0.00 | 0.19 | 0.19 | 94 | 1021.2 |
| 20260831171602 | 67 | 115 | 0.0 | 3.0 | 0.00 | 0.19 | 0.19 | 95 | 1019.1 |
| 20260831170002 | 65 | 174 | 0.0 | 3.0 | 0.00 | 0.19 | 0.19 | 97 | 1019.3 |
| 20260831164602 | 64 | 163 | 0.0 | 2.0 | 0.03 | 0.19 | 0.19 | 97 | 1019.5 |
| 20260831163003 | 64 | 141 | 0.0 | 2.0 | 0.12 | 0.19 | 0.19 | 97 | 1019.7 |
| 20260831161942 | 64 | 167 | 0.0 | 3.0 | 0.13 | 0.19 | 0.19 | 98 | 1022.0 |
| 20260831161602 | 64 | 165 | 0.0 | 1.0 | 0.13 | 0.19 | 0.19 | 98 | 1019.8 |
| 20260831160141 | 64 | 152 | 0.0 | 1.0 | 0.14 | 0.19 | 0.19 | 98 | 1021.9 |
| 20260831160002 | 64 | 153 | 0.0 | 1.0 | 0.14 | 0.19 | 0.19 | 98 | 1019.8 |
| 20260831155241 | 64 | 158 | 0.0 | 1.0 | 0.13 | 0.18 | 0.18 | 98 | 1021.9 |
| 20260831154603 | 63 | 167 | 0.0 | 1.0 | 0.11 | 0.16 | 0.16 | 98 | 1019.7 |
| 20260831154342 | 64 | 167 | 0.0 | 3.0 | 0.09 | 0.13 | 0.13 | 98 | 1021.8 |
| 20260831153441 | 64 | 184 | 0.0 | 3.0 | 0.05 | 0.07 | 0.07 | 98 | 1022.0 |
| 20260831153005 | 63 | 204 | 0.0 | 1.0 | 0.05 | 0.07 | 0.07 | 98 | 1020.0 |
| 20260831152541 | 64 | 222 | 0.0 | 1.0 | 0.05 | 0.07 | 0.07 | 98 | 1022.1 |
| 20260831151641 | 64 | 194 | 0.0 | 2.0 | 0.04 | 0.06 | 0.06 | 97 | 1022.1 |
| 20260831151603 | 63 | 221 | 0.0 | 2.0 | 0.04 | 0.06 | 0.06 | 97 | 1020.0 |
| 20260831150002 | 63 | 172 | 0.0 | 1.0 | 0.04 | 0.05 | 0.05 | 97 | 1019.9 |
| 20260831144941 | 64 | 211 | 0.0 | 1.0 | 0.04 | 0.05 | 0.05 | 97 | 1022.1 |
| 20260831144606 | 64 | 211 | 0.0 | 1.0 | 0.04 | 0.05 | 0.05 | 97 | 1019.8 |
| 20260831144041 | 64 | 211 | 0.0 | 1.0 | 0.03 | 0.04 | 0.04 | 97 | 1022.0 |
| 20260831143003 | 64 | 211 | 0.0 | 0.0 | 0.02 | 0.02 | 0.02 | 97 | 1019.7 |
| 20260831142241 | 64 | 211 | 0.0 | 1.0 | 0.02 | 0.02 | 0.02 | 97 | 1021.9 |
| 20260831141609 | 63 | 211 | 0.0 | 0.0 | 0.02 | 0.02 | 0.02 | 98 | 1019.6 |
| 20260831140441 | 64 | 199 | 0.0 | 2.0 | 0.02 | 0.02 | 0.02 | 97 | 1021.8 |
| 20260831140002 | 63 | 214 | 0.0 | 3.0 | 0.01 | 0.01 | 0.01 | 97 | 1019.6 |
| 20260831135541 | 64 | 189 | 0.0 | 1.0 | 0.01 | 0.01 | 0.01 | 98 | 1021.6 |
| 20260831134641 | 64 | 186 | 0.0 | 3.0 | 0.01 | 0.01 | 0.01 | 98 | 1021.7 |
| 20260831134606 | 63 | 199 | 0.0 | 3.0 | 0.01 | 0.01 | 0.01 | 98 | 1019.5 |
| 20260831133741 | 63 | 184 | 0.0 | 3.0 | 0.01 | 0.01 | 0.01 | 98 | 1021.7 |
| 20260831133002 | 63 | 165 | 0.0 | 3.0 | 0.00 | 0.00 | 0.00 | 98 | 1019.5 |
| 20260831132841 | 63 | 188 | 1.0 | 3.0 | 0.00 | 0.00 | 0.00 | 98 | 1021.7 |
| 20260831131941 | 63 | 199 | 0.0 | 3.0 | 0.00 | 0.00 | 0.00 | 98 | 1021.8 |
| 20260831131605 | 63 | 192 | 0.0 | 0.0 | 0.00 | 0.00 | 0.00 | 98 | 1019.6 |
| 20260831131041 | 63 | 0 | 0.0 | 0.0 | 0.00 | 0.00 | 0.00 | 98 | 1022.0 |
| 20260831130141 | 63 | 184 | 0.0 | 2.0 | 0.00 | 0.00 | 0.00 | 98 | 1022.1 |
| 20260831130002 | 63 | 186 | 0.0 | 2.0 | 0.00 | 0.00 | 0.00 | 98 | 1019.9 |
| 20260831125241 | 63 | 183 | 0.0 | 2.0 | 0.00 | 0.00 | 0.00 | 98 | 1022.0 |
| 20260831124603 | 62 | 187 | 0.0 | 1.0 | 0.00 | 0.00 | 0.00 | 98 | 1019.8 |
| 20260831124341 | 63 | 189 | 0.0 | 1.0 | 0.00 | 0.00 | 0.00 | 98 | 1021.9 |
| 20260831123004 | 62 | 155 | 0.0 | 0.0 | 0.00 | 0.00 | 0.00 | 98 | 1019.9 |
| 20260831122541 | 62 | 0 | 0.0 | 0.0 | 0.00 | 0.00 | 0.00 | 98 | 1021.9 |
| 20260831121641 | 62 | 0 | 0.0 | 0.0 | 0.00 | 0.00 | 0.00 | 98 | 1021.9 |
| 20260831121602 | 62 | 155 | 0.0 | 0.0 | 0.00 | 0.00 | 0.00 | 98 | 1019.8 |
| 20260831120002 | 62 | 154 | 0.0 | 0.0 | 0.00 | 0.00 | 0.00 | 98 | 1019.9 |
| 20260831115841 | 62 | 0 | 0.0 | 0.0 | 0.00 | 0.00 | 0.00 | 98 | 1022.0 |
| 20260831114602 | 62 | 155 | 0.0 | 0.0 | 0.00 | 0.00 | 0.00 | 98 | 1019.7 |
| 20260831113141 | 62 | 0 | 0.0 | 0.0 | 0.00 | 0.00 | 0.00 | 98 | 1021.7 |
| 20260831113004 | 62 | 155 | 0.0 | 0.0 | 0.00 | 0.00 | 0.00 | 98 | 1019.6 |
| 20260831112241 | 62 | 0 | 0.0 | 0.0 | 0.00 | 0.00 | 0.00 | 98 | 1021.5 |
| 20260831111614 | 62 | 155 | 0.0 | 0.0 | 0.00 | 0.00 | 0.00 | 98 | 1019.5 |
| 20260831110441 | 62 | 0 | 0.0 | 0.0 | 0.00 | 0.00 | 0.00 | 98 | 1021.7 |
| 20260831110003 | 62 | 155 | 0.0 | 0.0 | 0.00 | 0.00 | 0.00 | 98 | 1019.7 |
| 20260831105541 | 62 | 0 | 0.0 | 0.0 | 0.00 | 0.00 | 0.00 | 98 | 1021.6 |
| 20260831104641 | 62 | 0 | 0.0 | 0.0 | 0.00 | 0.00 | 0.00 | 98 | 1021.6 |
| 20260831104604 | 62 | 138 | 0.0 | 0.0 | 0.00 | 0.00 | 0.00 | 98 | 1019.5 |
| 20260831103741 | 62 | 0 | 0.0 | 0.0 | 0.00 | 0.00 | 0.00 | 98 | 1021.5 |
| 20260831103002 | 62 | 159 | 0.0 | 0.0 | 0.00 | 0.00 | 0.00 | 98 | 1019.6 |
| 20260831101941 | 62 | 0 | 0.0 | 0.0 | 0.00 | 0.00 | 0.00 | 98 | 1021.4 |
| 20260831101602 | 62 | 142 | 0.0 | 0.0 | 0.00 | 0.00 | 0.00 | 98 | 1019.3 |
| 20260831101041 | 62 | 0 | 0.0 | 0.0 | 0.00 | 0.00 | 0.00 | 98 | 1021.3 |
| 20260831100141 | 62 | 0 | 0.0 | 0.0 | 0.00 | 0.00 | 0.00 | 98 | 1021.3 |
| 20260831100003 | 62 | 142 | 0.0 | 0.0 | 0.00 | 0.00 | 0.00 | 98 | 1019.2 |
| 20260831095241 | 62 | 0 | 0.0 | 0.0 | 0.00 | 0.00 | 0.00 | 98 | 1021.3 |
| 20260831094605 | 62 | 143 | 0.0 | 0.0 | 0.00 | 0.00 | 0.00 | 98 | 1019.3 |
| 20260831094341 | 62 | 0 | 0.0 | 0.0 | 0.00 | 0.00 | 0.00 | 98 | 1021.4 |
| 20260831093441 | 62 | 0 | 0.0 | 0.0 | 0.00 | 0.00 | 0.00 | 98 | 1021.4 |
| 20260831093002 | 62 | 142 | 0.0 | 0.0 | 0.00 | 0.00 | 0.00 | 98 | 1019.3 |
| 20260831092541 | 62 | 0 | 0.0 | 0.0 | 0.00 | 0.00 | 0.00 | 98 | 1021.4 |
| 20260831091641 | 62 | 0 | 0.0 | 0.0 | 0.00 | 0.00 | 0.00 | 98 | 1021.3 |
| 20260831091605 | 62 | 142 | 0.0 | 0.0 | 0.00 | 0.00 | 0.00 | 98 | 1019.2 |
| 20260831090002 | 62 | 143 | 0.0 | 0.0 | 0.00 | 0.00 | 0.00 | 98 | 1019.2 |
| 20260831084941 | 62 | 0 | 0.0 | 0.0 | 0.00 | 0.00 | 0.00 | 98 | 1021.5 |
| 20260831084609 | 62 | 142 | 0.0 | 0.0 | 0.00 | 0.00 | 0.00 | 98 | 1019.4 |
| 20260831084041 | 62 | 0 | 0.0 | 0.0 | 0.00 | 0.00 | 0.00 | 98 | 1021.5 |
| 20260831083003 | 62 | 142 | 0.0 | 0.0 | 0.00 | 0.00 | 0.00 | 98 | 1019.3 |
| 20260831081606 | 61 | 142 | 0.0 | 0.0 | 0.00 | 0.00 | 0.00 | 98 | 1019.4 |
| 20260831081341 | 62 | 0 | 0.0 | 0.0 | 0.00 | 0.00 | 0.00 | 98 | 1021.6 |
| 20260831080441 | 62 | 0 | 0.0 | 0.0 | 0.00 | 0.00 | 0.00 | 97 | 1021.4 |
| 20260831080004 | 61 | 143 | 0.0 | 0.0 | 0.00 | 0.00 | 0.00 | 97 | 1019.2 |
| 20260831075541 | 62 | 0 | 0.0 | 0.0 | 0.00 | 0.00 | 0.00 | 97 | 1021.3 |
| 20260831074641 | 62 | 0 | 0.0 | 0.0 | 0.00 | 0.00 | 0.00 | 97 | 1021.3 |
| 20260831074606 | 62 | 143 | 0.0 | 0.0 | 0.00 | 0.00 | 0.00 | 97 | 1019.1 |
| 20260831073741 | 62 | 0 | 0.0 | 0.0 | 0.00 | 0.00 | 0.00 | 97 | 1021.3 |
| 20260831073007 | 62 | 142 | 0.0 | 0.0 | 0.00 | 0.00 | 0.00 | 97 | 1019.5 |
| 20260831071941 | 62 | 0 | 0.0 | 0.0 | 0.00 | 0.00 | 0.00 | 97 | 1021.7 |
| 20260831071607 | 62 | 142 | 0.0 | 0.0 | 0.00 | 0.00 | 0.00 | 97 | 1019.5 |
| 20260831071041 | 62 | 0 | 0.0 | 0.0 | 0.00 | 0.00 | 0.00 | 97 | 1021.6 |
| 20260831070002 | 62 | 142 | 0.0 | 0.0 | 0.00 | 0.00 | 0.00 | 97 | 1019.6 |
| 20260831065241 | 62 | 0 | 0.0 | 0.0 | 0.00 | 0.00 | 0.00 | 97 | 1021.8 |
| 20260831064607 | 61 | 145 | 0.0 | 0.0 | 0.00 | 0.00 | 0.00 | 97 | 1019.6 |
| 20260831063003 | 61 | 146 | 0.0 | 0.0 | 0.00 | 0.00 | 0.00 | 97 | 1019.5 |
| 20260831062541 | 62 | 0 | 0.0 | 0.0 | 0.00 | 0.00 | 0.00 | 97 | 1021.6 |
| 20260831061641 | 62 | 0 | 0.0 | 0.0 | 0.00 | 0.00 | 0.00 | 97 | 1021.5 |
| 20260831061602 | 61 | 146 | 0.0 | 0.0 | 0.00 | 0.00 | 0.00 | 97 | 1019.4 |
| 20260831060741 | 62 | 0 | 0.0 | 0.0 | 0.00 | 0.00 | 0.00 | 96 | 1021.4 |
| 20260831060002 | 61 | 145 | 0.0 | 0.0 | 0.00 | 0.00 | 0.00 | 96 | 1019.4 |
| 20260831054941 | 62 | 0 | 0.0 | 0.0 | 0.00 | 0.00 | 0.00 | 96 | 1021.7 |
| 20260831054604 | 62 | 145 | 0.0 | 0.0 | 0.00 | 0.00 | 0.00 | 96 | 1019.6 |
| 20260831054041 | 62 | 0 | 0.0 | 0.0 | 0.00 | 0.00 | 0.00 | 96 | 1021.8 |
| 20260831053141 | 62 | 0 | 0.0 | 0.0 | 0.00 | 0.00 | 0.00 | 96 | 1021.9 |
| 20260831053003 | 62 | 145 | 0.0 | 0.0 | 0.00 | 0.00 | 0.00 | 96 | 1019.8 |
| 20260831052241 | 62 | 0 | 0.0 | 0.0 | 0.00 | 0.00 | 0.00 | 95 | 1022.0 |
| 20260831051603 | 62 | 145 | 0.0 | 0.0 | 0.00 | 0.00 | 0.00 | 95 | 1020.0 |
| 20260831051341 | 62 | 0 | 0.0 | 0.0 | 0.00 | 0.00 | 0.00 | 95 | 1022.1 |
| 20260831050441 | 63 | 0 | 0.0 | 0.0 | 0.00 | 0.00 | 0.00 | 95 | 1022.1 |
| 20260831050002 | 62 | 146 | 0.0 | 0.0 | 0.00 | 0.00 | 0.00 | 95 | 1020.1 |
| 20260831045541 | 63 | 0 | 0.0 | 0.0 | 0.00 | 0.00 | 0.00 | 95 | 1022.3 |
| 20260831044641 | 63 | 0 | 0.0 | 0.0 | 0.00 | 0.00 | 0.00 | 95 | 1022.2 |
| 20260831044606 | 62 | 144 | 0.0 | 0.0 | 0.00 | 0.00 | 0.00 | 95 | 1020.1 |
| 20260831043741 | 63 | 0 | 0.0 | 0.0 | 0.00 | 0.00 | 0.00 | 94 | 1022.2 |
| 20260831043002 | 63 | 145 | 0.0 | 0.0 | 0.00 | 0.00 | 0.00 | 94 | 1020.2 |
| 20260831042841 | 63 | 0 | 0.0 | 0.0 | 0.00 | 0.00 | 0.00 | 94 | 1022.3 |
| 20260831041610 | 63 | 145 | 0.0 | 0.0 | 0.00 | 0.00 | 0.00 | 94 | 1020.2 |
| 20260831041041 | 63 | 0 | 0.0 | 0.0 | 0.00 | 0.00 | 0.00 | 93 | 1022.3 |
| 20260831040141 | 64 | 0 | 0.0 | 0.0 | 0.00 | 0.00 | 0.00 | 93 | 1022.2 |
| 20260831040003 | 63 | 145 | 0.0 | 0.0 | 0.00 | 0.00 | 0.00 | 93 | 1020.1 |
| 20260831035241 | 64 | 0 | 0.0 | 0.0 | 0.00 | 0.00 | 0.00 | 92 | 1022.2 |
| 20260831034609 | 63 | 140 | 0.0 | 0.0 | 0.00 | 0.00 | 0.00 | 92 | 1020.1 |
| 20260831034340 | 64 | 0 | 0.0 | 0.0 | 0.00 | 0.00 | 0.00 | 92 | 1022.3 |
| 20260831033441 | 64 | 0 | 0.0 | 0.0 | 0.00 | 0.00 | 0.00 | 92 | 1022.4 |
| 20260831033003 | 64 | 139 | 0.0 | 0.0 | 0.00 | 0.00 | 0.00 | 91 | 1020.4 |
| 20260831032541 | 64 | 0 | 0.0 | 0.0 | 0.00 | 0.00 | 0.00 | 91 | 1022.4 |
| 20260831031641 | 64 | 0 | 0.0 | 0.0 | 0.00 | 0.00 | 0.00 | 90 | 1022.5 |
| 20260831031605 | 64 | 138 | 0.0 | 0.0 | 0.00 | 0.00 | 0.00 | 90 | 1020.4 |
| 20260831030741 | 64 | 0 | 0.0 | 0.0 | 0.00 | 0.00 | 0.00 | 90 | 1022.4 |
| 20260831030002 | 64 | 153 | 0.0 | 0.0 | 0.00 | 0.00 | 0.00 | 90 | 1020.3 |
| 20260831025841 | 64 | 0 | 0.0 | 0.0 | 0.00 | 0.00 | 0.00 | 90 | 1022.4 |
| 20260831024941 | 64 | 0 | 0.0 | 0.0 | 0.00 | 0.00 | 0.00 | 91 | 1022.4 |
| 20260831024608 | 63 | 153 | 0.0 | 0.0 | 0.00 | 0.00 | 0.00 | 91 | 1020.3 |
| 20260831024041 | 64 | 0 | 0.0 | 0.0 | 0.00 | 0.00 | 0.00 | 91 | 1022.4 |
| 20260831023140 | 64 | 0 | 0.0 | 0.0 | 0.00 | 0.00 | 0.00 | 91 | 1022.3 |
| 20260831023002 | 64 | 154 | 0.0 | 0.0 | 0.00 | 0.00 | 0.00 | 91 | 1020.1 |
| 20260831022241 | 64 | 0 | 0.0 | 0.0 | 0.00 | 0.00 | 0.00 | 91 | 1022.3 |
| 20260831021603 | 63 | 153 | 0.0 | 0.0 | 0.00 | 0.00 | 0.00 | 91 | 1020.1 |
| 20260831021341 | 64 | 0 | 0.0 | 0.0 | 0.00 | 0.00 | 0.00 | 91 | 1022.2 |
| 20260831020441 | 64 | 0 | 0.0 | 0.0 | 0.00 | 0.00 | 0.00 | 92 | 1022.3 |
| 20260831020002 | 63 | 153 | 0.0 | 0.0 | 0.00 | 0.00 | 0.00 | 92 | 1020.2 |
| 20260831015540 | 63 | 0 | 0.0 | 0.0 | 0.00 | 0.00 | 0.00 | 92 | 1022.3 |
| 20260831014641 | 64 | 0 | 0.0 | 0.0 | 0.00 | 0.00 | 0.00 | 91 | 1022.3 |
| 20260831014602 | 63 | 153 | 0.0 | 0.0 | 0.00 | 0.00 | 0.00 | 91 | 1020.2 |
| 20260831013002 | 64 | 154 | 0.0 | 0.0 | 0.00 | 0.00 | 0.00 | 91 | 1020.0 |
| 20260831012841 | 64 | 0 | 0.0 | 0.0 | 0.00 | 0.00 | 0.00 | 91 | 1022.2 |